{"data":{"norad_id":67054,"intl_designator":"2025-294AA","name":"STARLINK-35754","alt_names":[],"object_type":"PAYLOAD","status":"ACTIVE","operator":null,"country":"US","launch_date":"2025-12-11","launch_site_code":"AFETR","launch_vehicle":null,"mission":null,"orbit_class":"UNKNOWN","rcs_meters":null,"size_class":null,"mass_kg":null,"dimensions":null,"purposes":["comms"],"wikipedia_slug":null,"has_3d_model":false,"image_url":null,"decayed_at":null,"tle_current":{"epoch":"2026-09-20T15:08:22.602624Z","epoch_age_seconds":71129,"freshness":"FRESH","line1":"1 67054U 25294AA  26263.63081716  .00011186  00000+0  41528-3 0  9994","line2":"2 67054  43.0053  17.0829 0001244 293.6147  66.4575 15.27589884 44614","mean_motion":15.27589884,"eccentricity":0.0001244,"inclination_deg":43.0053,"raan_deg":17.0829,"arg_perigee_deg":293.6147,"mean_anomaly_deg":66.4575,"bstar":0.00041528,"rev_number":4461,"period_min":94.266138777337,"perigee_km":482.16597207889,"apogee_km":483.87302781608,"semimajor_km":6861.1564999475,"source":"CELESTRAK","updated_at":"2026-09-21T09:00:36.096059Z"}}}